Hibbing, MN

1:57 PM CDT on May 27, 2018 (GMT -0500)
Chisholm-hibbing

Weather History for KHIB - September, 2012

Change the Weather History Date:

Saturday, September 15, 2012

  Actual Average Record
Temperature  
Mean Temperature 50 °F 53 °F  
Max Temperature 75 °F 66 °F 84 °F (1939)
Min Temperature 26 °F 40 °F 20 °F (2011)
Degree Days  
Heating Degree Days 14 12  
Month to date heating degree days 140  
Cooling Degree Days 0 0  
Month to date cooling degree days 7  
Moisture  
Dew Point 34 °F    
Average Humidity 82    
Maximum Humidity 100    
Minimum Humidity 32    
Precipitation  
Precipitation 0.00 in 0.10 in 0.92 in (2004)
Month to date precipitation 1.58  
Sea Level Pressure  
Sea Level Pressure 30.19 in    
Wind  
Wind Speed 2 mph (South)    
Max Wind Speed 10 mph    
Max Gust Speed 17 mph    
Visibility 6 miles    
Events Fog    
T = Trace of Precipitation, MM = Missing Value Source: NWS Daily Summary

Daily Weather History Graph

Daily Weather History Graph

Search for Another Location

Airport or City:

Astronomy

Sep. 15, 2012 Rise Set
Actual Time 6:49 AM CDT 7:22 PM CDT
Civil Twilight 6:18 AM CDT 7:53 PM CDT
Nautical Twilight 5:41 AM CDT 8:29 PM CDT
Astronomical Twilight 5:03 AM CDT 9:07 PM CDT
Moon 6:22 AM CDT (9/15) 6:48 PM CDT (9/15)
Length of Visible Light 13h 34m
Length of Day
12h 32m
Waning Crescent, 0% of the Moon is Illuminated
Sep 15
Waning Crescent
Sep 15
New
Sep 22
First Quarter
Sep 29
Full
Oct 8
Last Quarter

Hourly Weather History & Observations

Time (CDT) Temp. Windchill Dew Point Humidity Pressure Visibility Wind Dir Wind Speed Gust Speed Precip Events Conditions
12:01 AM 35.6 °F - 33.8 °F 93% 30.28 in 10.0 mi Calm Calm - N/A   Clear
12:53 AM 34.0 °F - 33.1 °F 96% 30.31 in 9.0 mi Calm Calm - N/A   Clear
1:32 AM 30.2 °F - 30.2 °F 100% 30.27 in 2.5 mi Calm Calm - N/A   Clear
1:40 AM 32.0 °F - 30.2 °F 93% 30.27 in 4.0 mi Calm Calm - N/A   Clear
1:43 AM 30.2 °F 26.7 °F 30.2 °F 100% 30.27 in 1.8 mi NW 3.5 mph - N/A   Clear
1:51 AM 32.0 °F 28.7 °F 30.2 °F 93% 30.27 in 4.0 mi NW 3.5 mph - N/A   Clear
1:53 AM 32.0 °F 28.7 °F 30.0 °F 92% 30.30 in 8.0 mi NW 3.5 mph - N/A   Clear
2:10 AM 32.0 °F - 30.2 °F 93% 30.26 in 1.8 mi Calm Calm - N/A   Clear
2:23 AM 30.2 °F - 28.4 °F 93% 30.26 in 3.0 mi Calm Calm - N/A   Clear
2:53 AM 30.0 °F - 28.9 °F 96% 30.30 in 10.0 mi Calm Calm - N/A   Clear
3:03 AM 30.2 °F - 28.4 °F 93% 30.26 in 1.8 mi Calm Calm - N/A   Clear
3:13 AM 28.4 °F - 28.4 °F 100% 30.26 in 0.5 mi Calm Calm - N/A Fog Light Freezing Fog
3:31 AM 30.2 °F 26.7 °F 28.4 °F 93% 30.26 in 2.0 mi NW 3.5 mph - N/A   Clear
3:44 AM 30.2 °F - 28.4 °F 93% 30.26 in 1.2 mi Calm Calm - N/A   Clear
3:49 AM 30.2 °F - 28.4 °F 93% 30.26 in 3.0 mi Calm Calm - N/A   Clear
3:53 AM 30.9 °F - 30.0 °F 96% 30.29 in 5.0 mi Calm Calm - N/A   Clear
3:56 AM 30.2 °F - 30.2 °F 100% 30.26 in 1.5 mi Calm Calm - N/A   Clear
4:12 AM 28.4 °F - 28.4 °F 100% 30.25 in 3.0 mi Calm Calm - N/A   Clear
4:29 AM 30.2 °F - 28.4 °F 93% 30.25 in 1.8 mi Calm Calm - N/A   Clear
4:53 AM 28.0 °F - 27.0 °F 96% 30.28 in 1.5 mi Calm Calm - N/A   Clear
5:10 AM 28.4 °F 24.6 °F 26.6 °F 93% 30.24 in 3.0 mi NW 3.5 mph - N/A   Clear
5:17 AM 28.4 °F - 28.4 °F 100% 30.24 in 1.8 mi Calm Calm - N/A   Clear
5:27 AM 26.6 °F 22.6 °F 26.6 °F 100% 30.24 in 0.8 mi NW 3.5 mph - N/A   Clear
5:43 AM 28.4 °F - 26.6 °F 93% 30.24 in 1.0 mi Calm Calm - N/A   Mist
5:46 AM 28.4 °F - 26.6 °F 93% 30.24 in 2.0 mi Calm Calm - N/A   Scattered Clouds
5:53 AM 28.0 °F - 27.0 °F 96% 30.27 in 10.0 mi Calm Calm - N/A   Partly Cloudy
6:11 AM 30.2 °F - 28.4 °F 93% 30.24 in 1.8 mi Calm Calm - N/A   Scattered Clouds
6:17 AM 30.2 °F - 28.4 °F 93% 30.23 in 2.5 mi Calm Calm - N/A   Mostly Cloudy
6:24 AM 30.2 °F - 28.4 °F 93% 30.23 in 8.0 mi Calm Calm - N/A   Mostly Cloudy
6:53 AM 28.9 °F - 28.0 °F 96% 30.27 in 2.5 mi Calm Calm - N/A   Mostly Cloudy
6:57 AM 28.4 °F - 26.6 °F 93% 30.23 in 0.8 mi Calm Calm - N/A   Mist
7:21 AM 30.2 °F - 28.4 °F 93% 30.22 in 2.5 mi Calm Calm - N/A   Mostly Cloudy
7:24 AM 30.2 °F - 28.4 °F 93% 30.22 in 7.0 mi Calm Calm - N/A   Scattered Clouds
7:53 AM 34.0 °F - 32.0 °F 92% 30.25 in 10.0 mi Calm Calm - N/A   Clear
8:53 AM 48.9 °F - 42.1 °F 77% 30.23 in 10.0 mi ESE 4.6 mph - N/A   Clear
9:53 AM 57.0 °F - 44.1 °F 62% 30.19 in 10.0 mi ESE 9.2 mph - N/A   Clear
10:53 AM 63.0 °F - 44.1 °F 50% 30.17 in 10.0 mi SE 8.1 mph - N/A   Clear
11:53 AM 66.9 °F - 42.1 °F 40% 30.13 in 10.0 mi SE 8.1 mph - N/A   Clear
12:53 PM 70.0 °F - 42.1 °F 36% 30.11 in 10.0 mi South 8.1 mph 17.3 mph N/A   Clear
1:53 PM 72.0 °F - 44.1 °F 37% 30.08 in 10.0 mi SSE 6.9 mph - N/A   Clear
2:53 PM 73.9 °F - 44.1 °F 34% 30.05 in 10.0 mi South 9.2 mph 17.3 mph N/A   Clear
3:53 PM 73.9 °F - 45.0 °F 35% 30.02 in 10.0 mi South 10.4 mph 16.1 mph N/A   Clear
4:53 PM 75.0 °F - 43.0 °F 32% 30.01 in 10.0 mi South 8.1 mph - N/A   Clear
5:53 PM 73.0 °F - 43.0 °F 34% 30.00 in 10.0 mi South 9.2 mph - N/A   Clear
6:53 PM 66.9 °F - 46.0 °F 47% 30.00 in 10.0 mi South 4.6 mph - N/A   Clear
7:53 PM 61.0 °F - 48.9 °F 64% 29.99 in 10.0 mi SE 4.6 mph - N/A   Clear
8:53 PM 57.0 °F - 48.0 °F 72% 29.98 in 10.0 mi SE 8.1 mph - N/A   Clear
9:53 PM 52.0 °F - 46.0 °F 80% 29.96 in 10.0 mi Calm Calm - N/A   Clear
10:53 PM 50.0 °F - 46.0 °F 86% 29.94 in 10.0 mi Calm Calm - N/A   Clear
11:53 PM 46.0 °F - 43.0 °F 89% 29.92 in 10.0 mi Calm Calm - N/A   Clear